Time,TemperatureF,DewpointF,PressureIn,WindDirection,WindDirectionDegrees,WindSpeedMPH,WindSpeedGustMPH,Humidity,HourlyPrecipIn,Conditions,Clouds,dailyrainin,SoftwareType,DateUTC
2013-05-06 00:01:00,49.0,46.0,29.93,NE,40,0.0,5.0,91,0.00,,,-99.99,,2013-05-06 07:01:00,
2013-05-06 00:11:00,49.0,46.0,29.93,NE,40,0.0,5.0,91,0.00,,,-99.99,,2013-05-06 07:11:00,
2013-05-06 00:22:00,49.0,46.0,29.93,WSW,256,0.0,4.0,91,0.00,,,-99.99,,2013-05-06 07:22:00,
2013-05-06 00:31:00,49.0,46.0,29.93,NW,307,0.0,6.0,91,0.00,,,-99.99,,2013-05-06 07:31:00,
2013-05-06 00:41:00,49.0,46.0,29.93,NW,307,0.0,6.0,91,0.00,,,-99.99,,2013-05-06 07:41:00,
2013-05-06 00:52:00,49.0,46.0,29.94,West,260,0.0,5.0,91,0.00,,,-99.99,,2013-05-06 07:52:00,
2013-05-06 01:01:00,49.0,46.0,29.94,SE,138,1.0,6.0,91,0.00,,,-99.99,,2013-05-06 08:01:00,
2013-05-06 01:11:00,49.0,46.0,29.94,SE,138,1.0,6.0,91,0.00,,,-99.99,,2013-05-06 08:11:00,
2013-05-06 01:21:00,49.0,46.0,29.93,West,259,1.0,5.0,91,-99.99,,,-99.99,,2013-05-06 08:21:00,
2013-05-06 01:31:00,49.0,46.0,29.93,West,259,1.0,5.0,91,-99.99,,,-99.99,,2013-05-06 08:31:00,
2013-05-06 01:41:00,49.0,46.0,29.93,West,259,1.0,5.0,91,-99.99,,,-99.99,,2013-05-06 08:41:00,
2013-05-06 01:52:00,49.0,47.0,29.93,East,84,0.0,8.0,92,-99.99,,,-99.99,,2013-05-06 08:52:00,
2013-05-06 02:01:00,49.0,47.0,29.93,NNE,22,2.0,5.0,92,-99.99,,,-99.99,,2013-05-06 09:01:00,
2013-05-06 02:11:00,49.0,47.0,29.93,NNE,22,2.0,5.0,92,-99.99,,,-99.99,,2013-05-06 09:11:00,
2013-05-06 02:22:00,49.0,47.0,29.94,SE,138,1.0,6.0,93,-99.99,,,-99.99,,2013-05-06 09:22:00,
2013-05-06 02:32:00,49.0,47.0,29.94,SSE,157,2.0,6.0,93,-99.99,,,-99.99,,2013-05-06 09:32:00,
2013-05-06 02:42:00,49.0,47.0,29.94,SSE,157,2.0,6.0,93,-99.99,,,-99.99,,2013-05-06 09:42:00,
2013-05-06 02:53:00,49.0,47.0,29.94,SW,234,0.0,4.0,93,0.00,,,-99.99,,2013-05-06 09:53:00,
2013-05-06 03:02:00,49.0,47.0,29.94,ESE,109,0.0,6.0,93,0.00,,,-99.99,,2013-05-06 10:02:00,
2013-05-06 03:12:00,49.0,47.0,29.94,ESE,109,0.0,6.0,93,0.00,,,-99.99,,2013-05-06 10:12:00,
2013-05-06 03:22:00,49.0,47.0,29.93,SW,225,2.0,4.0,93,0.00,,,-99.99,,2013-05-06 10:22:00,
2013-05-06 03:32:00,49.0,47.0,29.93,NNW,342,0.0,5.0,93,0.00,,,-99.99,,2013-05-06 10:32:00,
2013-05-06 03:41:00,49.0,47.0,29.93,NNW,342,0.0,5.0,93,0.00,,,-99.99,,2013-05-06 10:41:00,
2013-05-06 03:52:00,49.0,47.0,29.93,WSW,240,0.0,2.0,93,0.00,,,-99.99,,2013-05-06 10:52:00,
2013-05-06 04:02:00,49.0,47.0,29.93,NNW,327,0.0,6.0,92,0.00,,,-99.99,,2013-05-06 11:02:00,
2013-05-06 04:11:00,49.0,47.0,29.93,NNW,327,0.0,6.0,92,0.00,,,-99.99,,2013-05-06 11:11:00,
2013-05-06 04:22:00,49.0,47.0,29.93,SSW,192,0.0,4.0,92,0.00,,,-99.99,,2013-05-06 11:22:00,
2013-05-06 04:31:00,49.0,47.0,29.93,NW,315,1.0,6.0,92,0.00,,,-99.99,,2013-05-06 11:31:00,
2013-05-06 04:41:00,49.0,47.0,29.93,NW,315,1.0,6.0,92,0.00,,,-99.99,,2013-05-06 11:41:00,
2013-05-06 04:52:00,49.0,47.0,29.93,West,273,1.0,10.0,92,0.00,,,-99.99,,2013-05-06 11:52:00,
2013-05-06 05:01:00,49.0,47.0,29.93,WNW,295,1.0,6.0,92,0.00,,,-99.99,,2013-05-06 12:01:00,
2013-05-06 05:12:00,49.0,47.0,29.93,WNW,295,1.0,6.0,92,0.00,,,-99.99,,2013-05-06 12:12:00,
2013-05-06 05:21:00,49.0,47.0,29.93,NW,323,0.0,2.0,92,0.00,,,-99.99,,2013-05-06 12:21:00,
2013-05-06 05:31:00,49.0,47.0,29.94,NW,325,0.0,2.0,92,0.00,,,-99.99,,2013-05-06 12:31:00,
2013-05-06 05:41:00,49.0,47.0,29.94,NW,325,0.0,2.0,92,0.00,,,-99.99,,2013-05-06 12:41:00,
2013-05-06 05:52:00,49.0,47.0,29.94,NW,325,0.0,1.0,92,0.00,,,-99.99,,2013-05-06 12:52:00,
2013-05-06 06:01:00,48.0,46.0,29.94,NW,325,0.0,0.0,93,0.00,,,-99.99,,2013-05-06 13:01:00,
2013-05-06 06:11:00,48.0,46.0,29.94,NW,325,0.0,0.0,93,0.00,,,-99.99,,2013-05-06 13:11:00,
2013-05-06 06:21:00,48.0,46.0,29.94,NW,325,0.0,2.0,93,0.00,,,-99.99,,2013-05-06 13:21:00,
2013-05-06 06:31:00,48.0,46.0,29.94,NW,325,0.0,0.0,92,0.00,,,-99.99,,2013-05-06 13:31:00,
2013-05-06 06:42:00,48.0,46.0,29.94,NW,325,0.0,0.0,92,0.00,,,-99.99,,2013-05-06 13:42:00,
2013-05-06 06:52:00,48.0,46.0,29.95,NW,325,0.0,0.0,92,0.00,,,-99.99,,2013-05-06 13:52:00,
2013-05-06 07:01:00,48.0,46.0,29.95,NW,325,0.0,0.0,92,0.00,,,-99.99,,2013-05-06 14:01:00,
2013-05-06 07:11:00,48.0,46.0,29.95,NW,325,0.0,0.0,92,0.00,,,-99.99,,2013-05-06 14:11:00,
2013-05-06 07:21:00,47.0,45.0,29.96,NW,325,0.0,-999.0,92,-99.99,,,-99.99,,2013-05-06 14:21:00,
2013-05-06 07:32:00,47.0,45.0,29.96,NW,325,0.0,-999.0,93,-99.99,,,-99.99,,2013-05-06 14:32:00,
2013-05-06 07:42:00,47.0,45.0,29.96,NW,325,0.0,-999.0,93,-99.99,,,-99.99,,2013-05-06 14:42:00,
2013-05-06 07:51:00,48.0,46.0,29.96,NW,325,0.0,-999.0,93,-99.99,,,-99.99,,2013-05-06 14:51:00,
2013-05-06 08:01:00,48.0,46.0,29.96,NW,325,0.0,-999.0,93,-99.99,,,-99.99,,2013-05-06 15:01:00,
2013-05-06 08:11:00,48.0,46.0,29.96,NW,325,0.0,-999.0,93,-99.99,,,-99.99,,2013-05-06 15:11:00,
2013-05-06 08:21:00,48.0,46.0,29.97,NW,325,0.0,-999.0,94,-99.99,,,-99.99,,2013-05-06 15:21:00,
2013-05-06 08:33:00,49.0,47.0,29.97,NW,325,0.0,-999.0,94,-99.99,,,-99.99,,2013-05-06 15:33:00,
2013-05-06 08:42:00,49.0,47.0,29.97,NW,325,0.0,-999.0,94,-99.99,,,-99.99,,2013-05-06 15:42:00,
2013-05-06 08:53:00,52.0,49.0,29.97,NW,325,0.0,-999.0,88,-99.99,,,-99.99,,2013-05-06 15:53:00,
2013-05-06 09:02:00,54.0,49.0,29.97,NW,325,0.0,-999.0,84,-99.99,,,-99.99,,2013-05-06 16:02:00,
2013-05-06 09:12:00,54.0,49.0,29.97,NW,325,0.0,-999.0,84,-99.99,,,-99.99,,2013-05-06 16:12:00,
2013-05-06 09:22:00,55.0,49.0,29.98,NW,325,0.0,-999.0,80,-99.99,,,-99.99,,2013-05-06 16:22:00,
2013-05-06 09:32:00,55.0,49.0,29.99,NW,325,0.0,-999.0,80,-99.99,,,-99.99,,2013-05-06 16:32:00,
2013-05-06 09:41:00,55.0,49.0,29.99,NW,325,0.0,-999.0,80,-99.99,,,-99.99,,2013-05-06 16:41:00,
2013-05-06 09:52:00,57.0,49.0,29.99,SW,229,0.0,-999.0,75,-99.99,,,-99.99,,2013-05-06 16:52:00,
2013-05-06 10:02:00,57.0,47.0,29.99,SSE,157,0.0,-999.0,70,-99.99,,,-99.99,,2013-05-06 17:02:00,
2013-05-06 10:11:00,57.0,47.0,29.99,SSE,157,0.0,-999.0,70,-99.99,,,-99.99,,2013-05-06 17:11:00,
2013-05-06 10:22:00,59.0,48.0,29.99,West,261,0.0,-999.0,68,-99.99,,,-99.99,,2013-05-06 17:22:00,
2013-05-06 10:31:00,59.0,48.0,29.99,WNW,294,0.0,-999.0,68,-99.99,,,-99.99,,2013-05-06 17:31:00,
2013-05-06 10:42:00,59.0,48.0,29.99,WNW,294,0.0,-999.0,68,-99.99,,,-99.99,,2013-05-06 17:42:00,
2013-05-06 10:52:00,59.0,47.0,29.99,SSW,207,0.0,-999.0,65,-99.99,,,-99.99,,2013-05-06 17:52:00,
2013-05-06 11:01:00,61.0,49.0,29.99,NW,319,0.0,-999.0,65,-99.99,,,-99.99,,2013-05-06 18:01:00,
2013-05-06 11:11:00,61.0,49.0,29.99,NW,319,0.0,-999.0,65,-99.99,,,-99.99,,2013-05-06 18:11:00,
2013-05-06 11:21:00,61.0,50.0,30.00,WNW,301,0.0,-999.0,66,-99.99,,,-99.99,,2013-05-06 18:21:00,
2013-05-06 11:31:00,61.0,49.0,30.00,NNW,348,0.0,-999.0,65,-99.99,,,-99.99,,2013-05-06 18:31:00,
2013-05-06 11:42:00,61.0,49.0,30.00,NNW,348,0.0,-999.0,65,-99.99,,,-99.99,,2013-05-06 18:42:00,
2013-05-06 11:52:00,62.0,50.0,30.01,NNW,340,0.0,1.0,65,-99.99,,,-99.99,,2013-05-06 18:52:00,
2013-05-06 12:01:00,61.0,48.0,30.01,SE,142,0.0,1.0,63,-99.99,,,-99.99,,2013-05-06 19:01:00,
2013-05-06 12:11:00,61.0,48.0,30.01,SE,142,0.0,1.0,63,-99.99,,,-99.99,,2013-05-06 19:11:00,
2013-05-06 12:21:00,59.0,50.0,30.01,South,175,0.0,2.0,71,-99.99,,,-99.99,,2013-05-06 19:21:00,
2013-05-06 12:32:00,58.0,49.0,30.01,South,174,0.0,2.0,72,-99.99,,,-99.99,,2013-05-06 19:32:00,
2013-05-06 12:41:00,58.0,49.0,30.01,South,174,0.0,2.0,72,-99.99,,,-99.99,,2013-05-06 19:41:00,
2013-05-06 12:52:00,56.0,49.0,30.01,SSW,204,1.0,6.0,76,0.00,,,-99.99,,2013-05-06 19:52:00,
2013-05-06 13:01:00,56.0,49.0,30.01,SW,221,3.0,4.0,77,0.00,,,-99.99,,2013-05-06 20:01:00,
2013-05-06 13:11:00,56.0,49.0,30.01,SW,221,3.0,4.0,77,0.00,,,-99.99,,2013-05-06 20:11:00,
2013-05-06 13:21:00,54.0,50.0,30.02,SW,227,0.0,4.0,86,0.00,,,0.00,,2013-05-06 20:21:00,
2013-05-06 13:32:00,54.0,50.0,30.02,SSW,205,0.0,3.0,87,0.00,,,0.00,,2013-05-06 20:32:00,
2013-05-06 13:41:00,54.0,50.0,30.02,SSW,205,0.0,3.0,87,0.00,,,0.00,,2013-05-06 20:41:00,
2013-05-06 13:52:00,54.0,51.0,30.02,South,172,0.0,2.0,89,0.01,,,0.01,,2013-05-06 20:52:00,
2013-05-06 14:01:00,53.0,50.0,30.02,SSW,203,1.0,3.0,89,0.01,,,0.01,,2013-05-06 21:01:00,
2013-05-06 14:11:00,53.0,50.0,30.02,SSW,203,1.0,3.0,89,0.01,,,0.01,,2013-05-06 21:11:00,
2013-05-06 14:21:00,54.0,51.0,30.02,SSW,207,0.0,3.0,88,0.01,,,0.01,,2013-05-06 21:21:00,
2013-05-06 14:32:00,55.0,52.0,30.02,WSW,237,0.0,3.0,88,0.01,,,0.01,,2013-05-06 21:32:00,
2013-05-06 14:42:00,55.0,52.0,30.02,WSW,237,0.0,3.0,88,0.01,,,0.01,,2013-05-06 21:42:00,
2013-05-06 14:53:00,57.0,51.0,30.02,SSE,167,1.0,6.0,80,0.00,,,0.01,,2013-05-06 21:53:00,
2013-05-06 15:02:00,57.0,51.0,30.02,SSE,167,0.0,5.0,79,0.00,,,0.01,,2013-05-06 22:02:00,
2013-05-06 15:12:00,57.0,51.0,30.02,SSE,167,0.0,5.0,79,0.00,,,0.01,,2013-05-06 22:12:00,
2013-05-06 15:22:00,57.0,50.0,30.02,SSE,159,0.0,3.0,76,0.00,,,0.01,,2013-05-06 22:22:00,
2013-05-06 15:33:00,57.0,50.0,30.02,SSE,167,1.0,3.0,77,0.00,,,0.01,,2013-05-06 22:33:00,
2013-05-06 15:45:00,57.0,50.0,30.02,SSE,167,1.0,3.0,77,0.00,,,0.01,,2013-05-06 22:45:00,
2013-05-06 15:52:00,56.0,49.0,30.01,South,181,0.0,3.0,77,0.00,,,0.01,,2013-05-06 22:52:00,
2013-05-06 16:02:00,56.0,49.0,30.01,ENE,69,0.0,5.0,78,0.00,,,0.01,,2013-05-06 23:02:00,
2013-05-06 16:11:00,56.0,49.0,30.01,ENE,69,0.0,5.0,78,0.00,,,0.01,,2013-05-06 23:11:00,
2013-05-06 16:22:00,57.0,50.0,30.01,ENE,76,0.0,5.0,78,0.00,,,0.01,,2013-05-06 23:22:00,
2013-05-06 16:31:00,56.0,49.0,30.01,SE,124,0.0,1.0,77,0.00,,,0.01,,2013-05-06 23:31:00,
2013-05-06 16:41:00,56.0,49.0,30.01,SE,124,0.0,1.0,77,0.00,,,0.01,,2013-05-06 23:41:00,
2013-05-06 16:52:00,56.0,48.0,30.01,SSE,156,0.0,2.0,75,0.00,,,0.01,,2013-05-06 23:52:00,
2013-05-06 17:01:00,56.0,49.0,30.01,SSE,156,0.0,1.0,76,0.00,,,0.01,,2013-05-07 00:01:00,
2013-05-06 17:11:00,56.0,49.0,30.01,SSE,156,0.0,1.0,76,0.00,,,0.01,,2013-05-07 00:11:00,
2013-05-06 17:21:00,56.0,47.0,30.01,SW,225,0.0,2.0,73,0.00,,,0.01,,2013-05-07 00:21:00,
2013-05-06 17:31:00,56.0,47.0,30.01,East,94,0.0,2.0,73,0.00,,,0.01,,2013-05-07 00:31:00,
2013-05-06 17:41:00,56.0,47.0,30.01,East,94,0.0,2.0,73,0.00,,,0.01,,2013-05-07 00:41:00,
2013-05-06 17:52:00,56.0,47.0,30.02,South,169,0.0,1.0,73,0.00,,,0.01,,2013-05-07 00:52:00,
2013-05-06 18:01:00,56.0,47.0,30.02,SSE,167,0.0,1.0,73,0.00,,,0.01,,2013-05-07 01:01:00,
2013-05-06 18:11:00,56.0,47.0,30.02,SSE,167,0.0,1.0,73,0.00,,,0.01,,2013-05-07 01:11:00,
2013-05-06 18:21:00,55.0,48.0,30.02,SSW,201,0.0,0.0,76,0.00,,,0.01,,2013-05-07 01:21:00,
2013-05-06 18:31:00,55.0,47.0,30.02,SW,216,0.0,2.0,75,0.00,,,0.01,,2013-05-07 01:31:00,
2013-05-06 18:41:00,55.0,47.0,30.02,SW,216,0.0,2.0,75,0.00,,,0.01,,2013-05-07 01:41:00,
2013-05-06 18:52:00,55.0,47.0,30.01,South,181,0.0,1.0,75,0.00,,,0.01,,2013-05-07 01:52:00,
2013-05-06 19:01:00,54.0,46.0,30.01,South,181,0.0,1.0,75,0.00,,,0.01,,2013-05-07 02:01:00,
2013-05-06 19:11:00,54.0,46.0,30.01,South,181,0.0,1.0,75,0.00,,,0.01,,2013-05-07 02:11:00,
2013-05-06 19:21:00,54.0,46.0,30.02,South,173,0.0,1.0,75,0.00,,,0.01,,2013-05-07 02:21:00,
2013-05-06 19:31:00,54.0,46.0,30.02,South,173,0.0,0.0,75,0.00,,,0.01,,2013-05-07 02:31:00,
2013-05-06 19:41:00,54.0,46.0,30.02,South,173,0.0,0.0,75,0.00,,,0.01,,2013-05-07 02:41:00,
2013-05-06 19:52:00,54.0,46.0,30.02,South,173,0.0,0.0,75,0.00,,,0.01,,2013-05-07 02:52:00,
2013-05-06 20:01:00,54.0,47.0,30.02,South,173,0.0,0.0,76,0.00,,,0.01,,2013-05-07 03:01:00,
2013-05-06 20:11:00,54.0,47.0,30.02,South,173,0.0,0.0,76,0.00,,,0.01,,2013-05-07 03:11:00,
2013-05-06 20:21:00,53.0,46.0,30.03,South,173,0.0,0.0,78,0.00,,,0.01,,2013-05-07 03:21:00,
2013-05-06 20:32:00,52.0,46.0,30.03,South,173,0.0,0.0,79,0.00,,,0.01,,2013-05-07 03:32:00,
2013-05-06 20:42:00,52.0,46.0,30.03,South,173,0.0,0.0,79,0.00,,,0.01,,2013-05-07 03:42:00,
2013-05-06 20:53:00,52.0,46.0,30.04,South,173,0.0,0.0,79,0.00,,,0.01,,2013-05-07 03:53:00,
2013-05-06 21:02:00,52.0,46.0,30.04,South,173,0.0,0.0,79,0.00,,,0.01,,2013-05-07 04:02:00,
2013-05-06 21:12:00,52.0,46.0,30.04,South,173,0.0,0.0,79,0.00,,,0.01,,2013-05-07 04:12:00,
2013-05-06 21:23:00,51.0,45.0,30.05,South,173,0.0,0.0,80,0.00,,,0.01,,2013-05-07 04:23:00,
2013-05-06 21:32:00,51.0,45.0,30.05,South,173,0.0,0.0,80,0.00,,,0.01,,2013-05-07 04:32:00,
2013-05-06 21:42:00,51.0,45.0,30.05,South,173,0.0,0.0,80,0.00,,,0.01,,2013-05-07 04:42:00,
2013-05-06 21:53:00,51.0,45.0,30.05,South,173,0.0,0.0,81,0.00,,,0.01,,2013-05-07 04:53:00,
2013-05-06 22:02:00,51.0,45.0,30.05,South,173,0.0,1.0,81,0.00,,,0.01,,2013-05-07 05:02:00,
2013-05-06 22:12:00,51.0,45.0,30.05,South,173,0.0,1.0,81,0.00,,,0.01,,2013-05-07 05:12:00,
2013-05-06 22:22:00,51.0,45.0,30.06,South,175,0.0,0.0,79,0.00,,,0.01,,2013-05-07 05:22:00,
2013-05-06 22:32:00,50.0,44.0,30.06,South,175,0.0,0.0,79,0.00,,,0.01,,2013-05-07 05:32:00,
2013-05-06 22:42:00,50.0,44.0,30.06,South,175,0.0,0.0,79,0.00,,,0.01,,2013-05-07 05:42:00,
2013-05-06 22:52:00,50.0,44.0,30.07,South,175,0.0,0.0,80,0.00,,,0.01,,2013-05-07 05:52:00,
2013-05-06 23:02:00,50.0,44.0,30.07,South,175,0.0,0.0,80,0.00,,,0.01,,2013-05-07 06:02:00,
2013-05-06 23:11:00,50.0,44.0,30.07,South,175,0.0,0.0,80,0.00,,,0.01,,2013-05-07 06:11:00,
2013-05-06 23:21:00,50.0,43.0,30.08,South,175,0.0,0.0,78,0.00,,,0.01,,2013-05-07 06:21:00,
2013-05-06 23:32:00,50.0,44.0,30.08,South,175,0.0,0.0,79,0.00,,,0.01,,2013-05-07 06:32:00,
2013-05-06 23:41:00,50.0,44.0,30.08,South,175,0.0,0.0,79,0.00,,,0.01,,2013-05-07 06:41:00,
2013-05-06 23:52:00,50.0,44.0,30.08,South,175,0.0,0.0,79,0.00,,,0.01,,2013-05-07 06:52:00,